EN

Hourly Weather Aberen

Today, 4 December, Friday

Time Temperature Precipitation Wind Pressure Humidity
00:00 -1°C° 0 mm 2 mps 698 mmHg 68%
01:00 +1°C° 0 mm 2 mps 698 mmHg 68%
02:00 +1°C° 0 mm 2 mps 697 mmHg 68%
03:00 +1°C° 0 mm 2 mps 697 mmHg 68%
04:00 +1°C° 0 mm 2 mps 696 mmHg 68%
05:00 +1°C° 0 mm 2 mps 696 mmHg 69%
06:00 +1°C° 0 mm 2 mps 696 mmHg 69%
07:00 -1°C° 0 mm 2 mps 696 mmHg 69%
08:00 +1°C° 0 mm 2 mps 695 mmHg 67%
09:00 +2°C° 0 mm 2 mps 695 mmHg 66%
10:00 +3°C° 0 mm 2 mps 695 mmHg 64%
11:00 +3°C° 0 mm 2 mps 695 mmHg 63%
12:00 +4°C° 0 mm 2 mps 695 mmHg 61%
13:00 +6°C° 0 mm 1 mps 695 mmHg 60%
14:00 +5°C° 0.1 mm 1 mps 695 mmHg 67%
15:00 +4°C° 0.1 mm 1 mps 695 mmHg 75%
16:00 +3°C° 0.1 mm 1 mps 695 mmHg 82%
17:00 +2°C° 0.1 mm 1 mps 695 mmHg 86%
18:00 +2°C° 0.1 mm 1 mps 695 mmHg 90%
19:00 +2°C° 0.1 mm 1 mps 695 mmHg 94%
20:00 +2°C° 0.5 mm 1 mps 695 mmHg 95%
21:00 +1°C° 0.5 mm 0 mps 695 mmHg 96%
22:00 +1°C° 0.5 mm 0 mps 695 mmHg 97%
23:00 +1°C° 0.9 mm 0 mps 695 mmHg 98%

Tomorrow, 5 December, Saturday

Time Temperature Precipitation Wind Pressure Humidity
00:00 +1°C° 0.9 mm 0 mps 696 mmHg 98%
01:00 +1°C° 0.9 mm 0 mps 696 mmHg 98%
02:00 +1°C° 0.9 mm 0 mps 696 mmHg 98%
03:00 +1°C° 0.9 mm 0 mps 696 mmHg 98%
04:00 +1°C° 0.9 mm 0 mps 696 mmHg 98%
05:00 +1°C° 1.1 mm 0 mps 696 mmHg 98%
06:00 +1°C° 1.1 mm 0 mps 697 mmHg 98%
07:00 +2°C° 1.1 mm 1 mps 697 mmHg 98%
08:00 +2°C° 1.2 mm 1 mps 697 mmHg 98%
09:00 +1°C° 1.2 mm 0 mps 698 mmHg 98%
10:00 +1°C° 1.2 mm 0 mps 698 mmHg 98%
11:00 +2°C° 0.9 mm 0 mps 698 mmHg 98%
12:00 +2°C° 0.9 mm 0 mps 698 mmHg 98%
13:00 +2°C° 0.9 mm 0 mps 699 mmHg 98%
14:00 +2°C° 0.5 mm 0 mps 699 mmHg 98%
15:00 +2°C° 0.5 mm 0 mps 699 mmHg 98%
16:00 +2°C° 0.5 mm 0 mps 699 mmHg 98%
17:00 +2°C° 0 mm 1 mps 699 mmHg 97%
18:00 +2°C° 0 mm 1 mps 699 mmHg 95%
19:00 +1°C° 0 mm 1 mps 699 mmHg 93%
20:00 +1°C° 0 mm 1 mps 699 mmHg 94%
21:00 +1°C° 0 mm 1 mps 700 mmHg 94%
22:00 +1°C° 0 mm 0 mps 700 mmHg 94%
23:00 +1°C° 0.4 mm 0 mps 700 mmHg 95%

Day after tomorrow, 6 December, Sunday

Time Temperature Precipitation Wind Pressure Humidity
00:00 +1°C° 0.4 mm 0 mps 700 mmHg 96%
01:00 +1°C° 0.4 mm 0 mps 700 mmHg 97%
02:00 +1°C° 1 mm 0 mps 700 mmHg 98%
03:00 +1°C° 1 mm 0 mps 700 mmHg 98%
04:00 +1°C° 1 mm 0 mps 700 mmHg 99%
05:00 +1°C° 1.4 mm 0 mps 700 mmHg 99%
06:00 +1°C° 1.4 mm 0 mps 700 mmHg 99%
07:00 +1°C° 1.4 mm 0 mps 700 mmHg 99%
08:00 +1°C° 0.7 mm 0 mps 700 mmHg 99%
09:00 +2°C° 0.7 mm 0 mps 700 mmHg 99%
10:00 +2°C° 0.7 mm 0 mps 700 mmHg 99%
11:00 +2°C° 0.7 mm 0 mps 699 mmHg 99%
12:00 +2°C° 0.7 mm 0 mps 699 mmHg 99%
13:00 +2°C° 0.7 mm 0 mps 698 mmHg 99%
14:00 +2°C° 2.1 mm 0 mps 698 mmHg 99%
15:00 +3°C° 2.1 mm 1 mps 698 mmHg 99%
16:00 +2°C° 2.1 mm 1 mps 697 mmHg 99%
17:00 +2°C° 1 mm 1 mps 697 mmHg 99%
18:00 +2°C° 1 mm 1 mps 697 mmHg 99%
19:00 +2°C° 1 mm 1 mps 698 mmHg 99%
20:00 +2°C° 0.8 mm 1 mps 698 mmHg 99%
21:00 +2°C° 0.8 mm 1 mps 698 mmHg 99%
22:00 +2°C° 0.8 mm 1 mps 698 mmHg 99%
23:00 +2°C° 0.4 mm 1 mps 698 mmHg 99%

7 December, Monday

Time Temperature Precipitation Wind Pressure Humidity
00:00 +2°C° 0.4 mm 1 mps 698 mmHg 98%
01:00 +2°C° 0.4 mm 1 mps 699 mmHg 98%
02:00 +2°C° 0.2 mm 1 mps 699 mmHg 98%
03:00 +1°C° 0.2 mm 1 mps 699 mmHg 97%
04:00 +1°C° 0.2 mm 1 mps 699 mmHg 97%
05:00 +1°C° 0.1 mm 1 mps 700 mmHg 97%
06:00 +1°C° 0.1 mm 1 mps 700 mmHg 96%
07:00 +1°C° 0.1 mm 1 mps 700 mmHg 96%
08:00 +1°C° 0 mm 1 mps 701 mmHg 95%
09:00 +1°C° 0 mm 1 mps 701 mmHg 93%
10:00 +2°C° 0 mm 1 mps 701 mmHg 92%
11:00 +2°C° 0 mm 1 mps 701 mmHg 93%
12:00 +3°C° 0 mm 1 mps 701 mmHg 93%
13:00 +2°C° 0 mm 0 mps 702 mmHg 94%
14:00 +2°C° 0 mm 0 mps 702 mmHg 95%
15:00 +1°C° 0 mm 0 mps 702 mmHg 96%
16:00 +1°C° 0 mm 0 mps 702 mmHg 97%
17:00 +1°C° 0 mm 1 mps 703 mmHg 97%
18:00 +1°C° 0 mm 1 mps 703 mmHg 97%
19:00 0°C° 0 mm 1 mps 704 mmHg 97%
20:00 0°C° 0 mm 1 mps 704 mmHg 95%
21:00 -1°C° 0 mm 1 mps 704 mmHg 93%
22:00 -2°C° 0 mm 1 mps 704 mmHg 92%
23:00 -2°C° 0 mm 1 mps 703 mmHg 91%

8 December, Tuesday

Time Temperature Precipitation Wind Pressure Humidity
00:00 -2°C° 0 mm 1 mps 703 mmHg 90%
01:00 -3°C° 0 mm 1 mps 703 mmHg 89%
02:00 -3°C° 0 mm 1 mps 703 mmHg 88%
03:00 -3°C° 0 mm 1 mps 703 mmHg 88%
04:00 -4°C° 0 mm 1 mps 703 mmHg 88%
05:00 -4°C° 0 mm 1 mps 703 mmHg 87%
06:00 -4°C° 0 mm 1 mps 703 mmHg 87%
07:00 -4°C° 0 mm 1 mps 704 mmHg 86%
08:00 -3°C° 0 mm 1 mps 704 mmHg 86%
09:00 -2°C° 0 mm 1 mps 704 mmHg 86%
10:00 -1°C° 0 mm 1 mps 703 mmHg 86%
11:00 0°C° 0 mm 1 mps 703 mmHg 87%
12:00 +1°C° 0 mm 1 mps 703 mmHg 88%
13:00 +2°C° 0 mm 1 mps 703 mmHg 88%
14:00 +1°C° 0 mm 1 mps 703 mmHg 90%
15:00 0°C° 0 mm 1 mps 703 mmHg 91%
16:00 0°C° 0 mm 1 mps 703 mmHg 93%
17:00 -1°C° 0 mm 1 mps 703 mmHg 92%
18:00 -2°C° 0 mm 1 mps 703 mmHg 91%
19:00 -2°C° 0 mm 1 mps 703 mmHg 90%
20:00 -2°C° 0 mm 1 mps 703 mmHg 89%
21:00 -3°C° 0 mm 1 mps 703 mmHg 88%
22:00 -3°C° 0 mm 1 mps 703 mmHg 87%
23:00 -3°C° 0 mm 1 mps 703 mmHg 86%

9 December, Wednesday

Time Temperature Precipitation Wind Pressure Humidity
00:00 -3°C° 0 mm 1 mps 703 mmHg 86%
01:00 -3°C° 0 mm 1 mps 703 mmHg 85%
02:00 -3°C° 0 mm 1 mps 703 mmHg 85%
03:00 -3°C° 0 mm 1 mps 703 mmHg 84%
04:00 -4°C° 0 mm 1 mps 703 mmHg 84%
05:00 -4°C° 0 mm 1 mps 703 mmHg 83%
06:00 -4°C° 0 mm 1 mps 703 mmHg 83%
07:00 -4°C° 0 mm 1 mps 704 mmHg 83%
08:00 -3°C° 0 mm 1 mps 704 mmHg 83%
09:00 -3°C° 0 mm 0 mps 704 mmHg 82%
10:00 -3°C° 0 mm 0 mps 704 mmHg 82%
11:00 -1°C° 0 mm 0 mps 704 mmHg 82%
12:00 0°C° 0 mm 0 mps 704 mmHg 82%
13:00 +1°C° 0 mm 0 mps 704 mmHg 81%
14:00 -1°C° 0 mm 0 mps 704 mmHg 85%
15:00 -2°C° 0 mm 0 mps 703 mmHg 88%
16:00 -3°C° 0 mm 0 mps 703 mmHg 92%
17:00 -4°C° 0 mm 0 mps 704 mmHg 90%
18:00 -4°C° 0 mm 0 mps 704 mmHg 89%
19:00 -4°C° 0 mm 1 mps 705 mmHg 87%
20:00 -4°C° 0 mm 1 mps 705 mmHg 86%
21:00 -6°C° 0 mm 1 mps 705 mmHg 85%
22:00 -6°C° 0 mm 1 mps 706 mmHg 84%
23:00 -6°C° 0 mm 1 mps 706 mmHg 84%
Show more